Location: Newark
(44.3248°N, 23.7839°E)
Time: 11:49:24
(UTC+00:00)

FO-29 - Visible Passes

Search period start: 14 May 2025 00:00
Search period end: 24 May 2025 00:00
Orbit: 799 x 1321 km, 98.6° (Epoch: 13 May)

Date Brightness Start Highest point End Pass type
(mag) Time Alt. Az. Time Alt. Az. Time Alt. Az.
14 May 11.2 19:49:22 10° NE 19:53:03 16° E 19:53:44 16° E visible
14 May 9.5 21:32:35 10° NNE 21:38:38 86° WNW 21:40:12 56° SSW visible
14 May 11.6 23:19:31 10° NNW 23:23:02 16° WNW 23:26:41 10° W visible
15 May 10.2 20:37:37 10° NNE 20:43:19 39° E 20:44:24 36° ESE visible
15 May 10.6 22:22:49 10° N 22:28:21 39° WNW 22:30:53 28° WSW visible
16 May 11.3 19:44:09 10° NE 19:47:41 15° E 19:48:38 15° E visible
16 May 9.6 21:27:08 10° NNE 21:33:17 88° E 21:35:06 52° SSW visible
16 May 11.6 23:13:50 10° NNW 23:17:45 18° WNW 23:21:35 11° W visible
17 May 10.3 20:32:14 10° NNE 20:37:58 37° E 20:39:19 34° ESE visible
17 May 10.5 22:17:19 10° N 22:23:02 42° WNW 22:25:47 29° WSW visible
18 May 11.4 19:38:59 10° ENE 19:42:17 14° E 19:43:32 14° E visible
18 May 9.6 21:21:43 10° NNE 21:27:59 83° ESE 21:30:00 49° S visible
18 May 11.5 23:08:12 10° NNW 23:12:28 20° WNW 23:16:29 12° W visible
19 May 10.5 20:26:52 10° NNE 20:32:38 35° E 20:34:13 31° ESE visible
19 May 10.4 22:11:49 10° N 22:17:44 46° WNW 22:20:42 30° WSW visible
20 May 11.5 19:33:51 10° ENE 19:36:55 13° E 19:38:27 13° ESE visible
20 May 9.7 21:16:16 10° NNE 21:22:39 78° ESE 21:24:55 46° S visible
20 May 11.5 23:02:36 10° NNW 23:07:11 22° WNW 23:11:24 12° WSW visible
21 May 10.6 20:21:31 10° NNE 20:27:19 33° E 20:29:08 29° ESE visible
21 May 10.3 22:06:20 10° N 22:12:26 50° WNW 22:15:37 30° SW visible
22 May 11.5 19:28:47 10° ENE 19:31:33 13° E 19:33:21 11° ESE visible
22 May 9.7 21:10:52 10° NNE 21:17:22 73° ESE 21:19:50 44° S visible
22 May 11.4 22:57:01 10° N 23:01:55 24° WNW 23:06:18 13° WSW visible
23 May 10.7 20:16:10 10° NE 20:21:58 31° E 20:24:03 27° SE visible
23 May 10.3 22:00:53 10° N 22:07:09 54° WNW 22:10:31 30° SW visible
23 May 12.1 23:49:45 10° NW 23:51:01 11° NW 23:52:18 10° WNW visible
